Weather History for Russell, KS

Change the Weather History Date:

Sunday, November 4, 2012

  Actual Average Record
Temperature  
Mean Temperature 54 °F -  
Max Temperature 73 °F 56 °F 81 °F (2007)
Min Temperature 36 °F 33 °F 6 °F (1991)
Degree Days  
Heating Degree Days 11    
Growing Degree Days 4 (Base 50)    
Moisture  
Dew Point 34 °F    
Average Humidity 55    
Maximum Humidity 83    
Minimum Humidity 26    
Precipitation  
Precipitation 0.00 in - - ()
Sea Level Pressure  
Sea Level Pressure 30.10 in    
Wind  
Wind Speed 12 mph (SW)    
Max Wind Speed 22 mph    
Max Gust Speed 29 mph    
Visibility 10 miles    
Events      
Averages and records for this station are not official NWS values.
T = Trace of Precipitation, MM = Missing Value Source: NWS Daily Summary

Daily Weather History Graph

Daily Weather History Graph

Search for Another Location

Airport:

Trip Planner

Search our weather history database for the weather conditions in past years. The results will help you decide how hot, cold, wet, or windy it might be!

Date:

Astronomy

Nov. 04, 2012 Rise Set
Actual Time 7:06 AM CST 5:30 PM CST
Civil Twilight 6:38 AM CST 5:58 PM CST
Nautical Twilight 6:06 AM CST 6:30 PM CST
Astronomical Twilight 5:35 AM CST 7:01 PM CST
Moon 10:10 PM CST (11/4) 11:50 AM CST (11/4)
Length of Visible Light 11h 20m
Length of Day
10h 24m
Waning Gibbous, 72% of the Moon is Illuminated
Nov 4
Waning Gibbous
Nov 6
Last Quarter
Nov 13
New
Nov 20
First Quarter
Nov 28
Full

Hourly Weather History & Observations

Time (CST) Temp. Windchill Dew Point Humidity Pressure Visibility Wind Dir Wind Speed Gust Speed Precip Events Conditions
12:53 AM 39.9 °F 33.9 °F 35.1 °F 83% 30.20 in 10.0 mi SSW 9.2 mph - N/A   Clear
1:53 AM 39.9 °F 33.9 °F 35.1 °F 83% 30.18 in 10.0 mi South 9.2 mph - N/A   Clear
1:53 AM 39.0 °F 32.8 °F 34.0 °F 82% 30.17 in 10.0 mi South 9.2 mph - N/A   Clear
2:53 AM 39.0 °F 32.8 °F 34.0 °F 82% 30.17 in 10.0 mi SSW 9.2 mph - N/A   Clear
3:53 AM 37.9 °F 30.9 °F 33.1 °F 83% 30.16 in 10.0 mi SSW 10.4 mph - N/A   Clear
4:53 AM 39.0 °F 31.8 °F 33.1 °F 79% 30.15 in 10.0 mi SSW 11.5 mph - N/A   Clear
5:53 AM 37.9 °F 30.5 °F 32.0 °F 79% 30.17 in 10.0 mi SSW 11.5 mph - N/A   Clear
6:53 AM 36.0 °F 28.0 °F 30.9 °F 82% 30.18 in 10.0 mi SW 11.5 mph - N/A   Clear
7:53 AM 37.9 °F 30.0 °F 33.1 °F 83% 30.18 in 10.0 mi SSW 12.7 mph - N/A   Clear
8:53 AM 43.0 °F 36.4 °F 35.1 °F 74% 30.16 in 10.0 mi SSW 12.7 mph - N/A   Clear
9:53 AM 52.0 °F - 35.1 °F 53% 30.13 in 10.0 mi SSW 21.9 mph 26.5 mph N/A   Clear
10:53 AM 60.1 °F - 33.1 °F 36% 30.11 in 10.0 mi SSW 20.7 mph 28.8 mph N/A   Clear
11:53 AM 64.9 °F - 33.1 °F 31% 30.07 in 10.0 mi SW 21.9 mph 28.8 mph N/A   Clear
12:53 PM 68.0 °F - 35.1 °F 30% 30.04 in 10.0 mi SW 16.1 mph 24.2 mph N/A   Clear
1:53 PM 70.0 °F - 35.1 °F 28% 30.00 in 10.0 mi SW 20.7 mph - N/A   Clear
2:53 PM 72.0 °F - 35.1 °F 26% 29.98 in 10.0 mi SW 17.3 mph - N/A   Clear
3:53 PM 71.1 °F - 35.1 °F 27% 29.98 in 10.0 mi WSW 9.2 mph - N/A   Clear
4:53 PM 66.9 °F - 32.0 °F 27% 29.99 in 10.0 mi North 6.9 mph - N/A   Clear
5:53 PM 62.1 °F - 33.1 °F 34% 30.02 in 10.0 mi NNE 9.2 mph - N/A   Partly Cloudy
6:53 PM 60.1 °F - 34.0 °F 38% 30.06 in 10.0 mi NNE 10.4 mph - N/A   Mostly Cloudy
7:53 PM 57.9 °F - 34.0 °F 41% 30.07 in 10.0 mi NNE 9.2 mph - N/A   Overcast
8:53 PM 57.0 °F - 34.0 °F 42% 30.08 in 10.0 mi North 6.9 mph - N/A   Mostly Cloudy
9:53 PM 54.0 °F - 35.1 °F 49% 30.09 in 10.0 mi NW 8.1 mph - N/A   Mostly Cloudy
10:53 PM 53.6 °F - 35.6 °F 51% 30.09 in 10.0 mi NNW 8.1 mph - N/A   Clear